Scottsbluff, NE

2:17 PM MST on March 01, 2017 (GMT -0700)
Heilig

Weather History for KBFF - October, 2013

Change the Weather History Date:

Wednesday, October 30, 2013

  Actual Average Record
Temperature  
Mean Temperature 44 °F 43 °F  
Max Temperature 56 °F 59 °F 80 °F (1968)
Min Temperature 32 °F 28 °F -3 °F (1925)
Degree Days  
Heating Degree Days 21 22  
Month to date heating degree days 546 490  
Since 1 July heating degree days 634 669  
Cooling Degree Days 0 0  
Month to date cooling degree days 0 0  
Year to date cooling degree days 1047 723  
Moisture  
Dew Point 34 °F    
Average Humidity 69    
Maximum Humidity 100    
Minimum Humidity 38    
Precipitation  
Precipitation 0.02 in 0.03 in 0.52 in (1929)
Month to date precipitation 1.62 1.11  
Year to date precipitation 11.84 14.59  
Snow  
Snow 0.00 in 0.20 in 6.00 in (2002)
Month to date snowfall 6.2 2.6  
Since 1 July snowfall 6.2 3.1  
Snow Depth 0.00 in    
Sea Level Pressure  
Sea Level Pressure 29.85 in    
Wind  
Wind Speed 8 mph (West)    
Max Wind Speed 22 mph    
Max Gust Speed 30 mph    
Visibility 9 miles    
Events Rain    
T = Trace of Precipitation, MM = Missing Value Source: NWS Daily Summary

Daily Weather History Graph

Daily Weather History Graph

Search for Another Location

Airport or City:

Trip Planner

Search our weather history database for the weather conditions in past years. The results will help you decide how hot, cold, wet, or windy it might be!

Date:

Astronomy

Oct. 30, 2013 Rise Set
Actual Time 7:24 AM MDT 5:50 PM MDT
Civil Twilight 6:55 AM MDT 6:19 PM MDT
Nautical Twilight 6:23 AM MDT 6:52 PM MDT
Astronomical Twilight 5:50 AM MDT 7:24 PM MDT
Moon 3:12 AM MDT (10/30) 3:40 PM MDT (10/30)
Length of Visible Light 11h 23m
Length of Day
10h 26m
Waning Crescent, 16% of the Moon is Illuminated
Oct 30
Waning Crescent
Nov 3
New
Nov 9
First Quarter
Nov 17
Full
Nov 25
Last Quarter

Hourly Weather History & Observations

Time (MDT) Temp. Windchill Dew Point Humidity Pressure Visibility Wind Dir Wind Speed Gust Speed Precip Events Conditions
12:53 AM 35.1 °F 29.3 °F 33.1 °F 92% 29.99 in 10.0 mi ESE 6.9 mph - N/A   Overcast
1:53 AM 35.1 °F 29.3 °F 33.1 °F 92% 29.91 in 10.0 mi NNE 6.9 mph - 0.00 in Rain Light Rain
2:11 AM 35.6 °F 30.7 °F 33.8 °F 93% 29.87 in 10.0 mi ENE 5.8 mph - 0.00 in   Overcast
2:53 AM 35.1 °F 28.6 °F 33.1 °F 92% 29.91 in 10.0 mi SE 8.1 mph - 0.00 in   Overcast
3:25 AM 35.6 °F 29.9 °F 33.8 °F 93% 29.87 in 10.0 mi SE 6.9 mph - N/A   Overcast
3:53 AM 35.1 °F 25.9 °F 33.1 °F 92% 29.96 in 10.0 mi South 13.8 mph - N/A   Overcast
4:31 AM 35.6 °F 30.7 °F 33.8 °F 93% 29.88 in 9.0 mi ESE 5.8 mph - 0.00 in Rain Light Rain
4:49 AM 35.6 °F 29.9 °F 33.8 °F 93% 29.86 in 5.0 mi East 6.9 mph - 0.00 in Rain Rain
4:53 AM 35.1 °F 30.1 °F 33.1 °F 92% 29.89 in 5.0 mi East 5.8 mph - 0.01 in Rain Light Rain
5:05 AM 35.6 °F 29.2 °F 33.8 °F 93% 29.84 in 7.0 mi East 8.1 mph - 0.01 in Rain Light Rain
5:44 AM 35.6 °F 29.9 °F 33.8 °F 93% 29.85 in 8.0 mi SSW 6.9 mph - 0.01 in Rain Light Rain
5:51 AM 35.6 °F 30.7 °F 33.8 °F 93% 29.85 in 8.0 mi SW 5.8 mph - 0.01 in Rain Light Rain
5:53 AM 35.1 °F 30.1 °F 34.0 °F 96% 29.90 in 8.0 mi WSW 5.8 mph - 0.01 in Rain Light Rain
6:05 AM 35.6 °F 31.7 °F 33.8 °F 93% 29.86 in 8.0 mi South 4.6 mph - 0.00 in Rain Light Rain
6:53 AM 36.0 °F 31.1 °F 34.0 °F 93% 29.88 in 7.0 mi ESE 5.8 mph - 0.00 in   Overcast
7:06 AM 35.6 °F 31.7 °F 33.8 °F 93% 29.84 in 7.0 mi ESE 4.6 mph - 0.00 in Rain Light Rain
7:53 AM 36.0 °F 32.1 °F 35.1 °F 97% 29.88 in 10.0 mi ESE 4.6 mph - 0.00 in   Overcast
8:23 AM 37.4 °F 32.8 °F 35.6 °F 93% 29.85 in 10.0 mi WNW 5.8 mph - N/A   Overcast
8:53 AM 37.0 °F 31.6 °F 35.1 °F 93% 29.90 in 6.0 mi WNW 6.9 mph - N/A   Overcast
9:31 AM 37.4 °F 32.1 °F 35.6 °F 93% 29.86 in 10.0 mi West 6.9 mph - 0.00 in   Overcast
9:53 AM 37.9 °F 32.7 °F 36.0 °F 93% 29.89 in 10.0 mi WNW 6.9 mph - 0.00 in   Overcast
10:53 AM 43.0 °F 36.8 °F 37.9 °F 82% 29.87 in 10.0 mi WNW 11.5 mph - N/A   Mostly Cloudy
11:46 AM 46.4 °F 41.9 °F 37.4 °F 71% 29.85 in 10.0 mi WNW 9.2 mph - N/A   Partly Cloudy
11:53 AM 48.0 °F - 37.9 °F 68% 29.85 in 10.0 mi West 10.4 mph 17.3 mph N/A   Scattered Clouds
12:53 PM 51.1 °F - 36.0 °F 56% 29.81 in 10.0 mi WNW 12.7 mph - N/A   Partly Cloudy
1:53 PM 52.0 °F - 34.0 °F 50% 29.78 in 10.0 mi WNW 9.2 mph - N/A   Partly Cloudy
2:53 PM 55.0 °F - 30.9 °F 40% 29.76 in 10.0 mi West 13.8 mph 21.9 mph N/A   Scattered Clouds
3:53 PM 55.0 °F - 30.0 °F 38% 29.75 in 10.0 mi West 18.4 mph 23.0 mph N/A   Partly Cloudy
4:53 PM 53.1 °F - 30.0 °F 41% 29.75 in 10.0 mi WNW 10.4 mph 21.9 mph N/A   Clear
5:53 PM 50.0 °F - 30.9 °F 48% 29.77 in 10.0 mi WNW 12.7 mph 18.4 mph N/A   Partly Cloudy
6:53 PM 43.0 °F 38.2 °F 33.1 °F 68% 29.82 in 10.0 mi West 8.1 mph - N/A   Clear
7:53 PM 39.0 °F 34.8 °F 33.1 °F 79% 29.83 in 10.0 mi West 5.8 mph - N/A   Clear
8:53 PM 35.1 °F 32.2 °F 30.9 °F 85% 29.84 in 10.0 mi NW 3.5 mph - N/A   Clear
9:53 PM 36.0 °F 31.1 °F 32.0 °F 86% 29.84 in 10.0 mi NW 5.8 mph - N/A   Scattered Clouds
10:53 PM 37.9 °F - 32.0 °F 79% 29.81 in 10.0 mi Calm Calm - N/A   Clear
11:53 PM 34.0 °F 31.0 °F 30.9 °F 89% 29.81 in 10.0 mi ENE 3.5 mph - N/A   Mostly Cloudy